Regional Weather Roundup
Issued by NWS Grand Forks, ND

Home | Current Version | Previous Version | Graphics & Text | Print | Product List | Glossary On
Versions: 1 2 3 4 5 6 7 8 9 10 11 12 13 14 15 16 17 18 19 20 21 22 23 24 25 26 27 28 29 30 31 32 33 34 35 36 37 38 39 40 41 42 43 44 45 46 47 48 49 50
000
ASUS43 KFGF 250931
RWRFGF
PRAIRIE TO PINES  WEATHER ROUNDUP
NATIONAL WEATHER SERVICE EASTERN NORTH DAKOTA/GRAND FORKS ND
400 AM CDT FRI JUL 25 2014

 **SATELLITE DATA USED TO AUGMENT SKY COVER AT AUTOMATED STATIONS**
 *****  WEATHER ACROSS EASTERN NORTH DAKOTA  *****

CITY           SKY/WX    TMP DP  RH WIND       PRES   REMARKS
GRAND FORKS    MOCLDY    68  62  81 SE16      29.70F
GRAND FRKS AFB MOCLDY    67  65  94 S9        29.73F
GRAND FRKS NWS   N/A     66 N/A N/A S6          N/A
DEVILS LAKE    CLOUDY    66  61  82 SE15      29.74S
FARGO          CLOUDY    68  61  78 SE7       29.74S
WAHPETON ARPT  CLOUDY    63  59  88 E10G16    29.70F
$$

 ***** WEATHER ACROSS CENTRAL AND WESTERN NORTH DAKOTA  *****

CITY           SKY/WX    TMP DP  RH WIND       PRES   REMARKS
BISMARCK       CLEAR     67  63  87 NE7       29.76R
MINOT          MOCLDY    67  65  93 SW9       29.73R
JAMESTOWN      MOCLDY    64  62  93 E9        29.74R
MINOT AFB      MOCLDY    66  66 100 W14G22    29.75R
GARRISON         N/A     67  66  97 SE6       29.77R
WILLISTON      CLEAR     55  51  86 CALM      29.84R
DICKINSON      CLEAR     56  52  86 NW9       29.85R
HETTINGER      CLEAR     62  53  72 NW20G30   29.84R
$$

 *****  OTHER AIRPORT OBSERVATIONS IN OUR AREA  *****

CITY           SKY/WX    TMP DP  RH WIND       PRES   REMARKS
WALHALLA         N/A     66  66 100 S16         N/A
GRAFTON AIRPOR FAIR      66  63  88 S5        29.74R
VALLEY CITY AR CLOUDY    64  64 100 E9        29.75R
CANDO          PTSUNNY   64  64 100 S20G31    29.65F
CAVALIER APRT  FAIR      66  63  88 SW8       29.74F
GWINNER        PTSUNNY   64  64 100 NE8       29.73R
SHEYENNE NWR     N/A     63  62  95 E8        29.95S
ROLLA          FAIR      63  63 100 SW10      29.72R
 ***** THE ABOVE OBSERVATIONS ARE NON NWS ARE NOT QUALITY
       CONTROLLED AND MAY MIS-REPORT RAIN FOR SNOW...
$$

  *****  WEATHER ACROSS NORTHERN MINNESOTA  *****

CITY           SKY/WX    TMP DP  RH WIND       PRES   REMARKS
FLAG ISLAND    MOCLDY    66  61  82 E5        29.77F
WARROAD        MOCLDY    63  57  82 SE5       29.78F
ROSEAU         PTCLDY    63  57  82 SE6       29.77F
HALLOCK        LGT RAIN  66  63  88 S6        29.74R
THF RVR FALLS  MOCLDY    66  61  82 SE9       29.77F
BAUDETTE       CLOUDY    64  58  80 SE5       29.82F
WASKISH        MOCLDY    61  59  94 CALM      29.81F
CROOKSTON      MOCLDY    66  63  88 S9        29.75F
$$
  *****  WEATHER ACROSS CENTRAL AND WEST MINNESOTA  *****

CITY           SKY/WX    TMP DP  RH WIND       PRES   REMARKS
FOSSTON        RAIN      64  61  88 S9        29.79F
BEMIDJI        LGT RAIN  65  62  89 SE5       29.81S
PARK RAPIDS    LGT RAIN  66  60  81 S16       29.80F
ELBOW LAKE     PTSUNNY   63  62  96 NE12G17   29.74R
WADENA         DRIZZLE   63  57  82 SE18      29.75F
DETROIT LAKES  CLOUDY    64  59  82 SE15      29.79S
MOORHEAD       CLOUDY    68  64  88 SE8       29.73F
FERGUS FALLS   CLOUDY    64  59  82 SE14G21   29.71F
MORRIS MN      CLOUDY    64  63  94 SE13      29.69F
STAPLES        LGT RAIN  63  57  82 SE9G20    29.79F
$$
  *****  WEATHER ELSEWHERE ACROSS MINNESOTA  *****

CITY           SKY/WX    TMP DP  RH WIND       PRES   REMARKS
DULUTH         CLOUDY    62  57  83 SE6       29.88R
INTRNTL FALLS  LGT RAIN  60  58  92 CALM      29.83S
ELY            MOCLDY    59  55  88 CALM      29.87R
CLOQUET        CLOUDY    61  57  88 E6        29.85F
WHEATON        CLOUDY    63  61  94 E15       29.70F
BRAINERD       TSTM      63  59  87 SW9G23    29.83R FOG
HIBBING        CLOUDY    62  58  86 SE6       29.85F
ALEXANDRIA     RAIN      63  60  90 E20G25    29.79F
SAINT CLOUD    TSTM      64  61  88 SE8       29.84R FOG
MINNEAPOLIS    CLOUDY    67  59  75 SE10      29.86F
$$

  *****  WEATHER ACROSS SOUTH DAKOTA  *****

CITY           SKY/WX    TMP DP  RH WIND       PRES   REMARKS
SIOUX FALLS    PTCLDY    66  62  87 E12       29.79R
BROOKINGS      NOT AVBL
WATERTOWN      CLOUDY    65  62  90 E9        29.76R
HURON          MOCLDY    68  63  84 E5        29.67F
SISSETON         N/A     65  64  97 S14G21    29.71S
ABERDEEN       CLOUDY    66  65  96 NE13      29.67F
MITCHELL       PTCLDY    67  64  90 NE7       29.72R
PIERRE         CLEAR     71  66  84 SE7       29.64F
MOBRIDGE       PTCLDY    67  65  93 NW15      29.69R
RAPID CITY     CLEAR     66  51  58 NW22G31   29.88R
$$

  *****  SOME WEATHER IN NEARBY STATES *****

CITY           SKY/WX    TMP DP  RH WIND       PRES   REMARKS
GLASGOW MT     CLEAR     53  37  54 W8        29.88F
GREAT FALLS MT CLEAR     56  35  45 SW18      29.97F
CHEYENNE WY    CLEAR     68  48  48 W14G21    30.10F
SCOTTSBLUFF NE CLEAR     69  55  60 NW8       29.90R
OMAHA NE       CLOUDY    79  63  57 S15G29    29.73F
DES MOINES IA  CLOUDY    66  61  84 E12       29.93S
DAVENPORT IA   CLEAR     63  55  75 S9        30.01R
CHICAGO IL     CLEAR     56  48  74 S5        30.04F
EAU CLAIRE WI  CLOUDY    67  60  78 S8        29.92R
LA CROSSE WI   CLOUDY    69  59  70 S9        29.95R
$$

  *****  SOME NATIONAL WEATHER *****

CITY           SKY/WX    TMP DP  RH WIND       PRES   REMARKS
LA GUARDIA NY  PTCLDY    68  54  60 N7        29.95R
RALEIGH NC     FOG       67  65  93 CALM      30.00R VSB 1/2
ATLANTA GA     CLEAR     71  69  93 CALM      29.99S
NEW ORLEANS LA PTCLDY    78  74  87 W7        29.98S
OKLAHOMA CITY  PTCLDY    72  67  84 S6        30.00S
ALBUQUERQUE NM PTCLDY    73  42  32 SE7       30.20F
SALT LAKE CITY PTCLDY    67  43  41 N9        30.00R
LOS ANGELES CA PTCLDY    71  59  65 E5        29.85R
BOISE ID       CLEAR     58  35  42 NW3       30.05F
SEATTLE WA     MOCLDY    59  51  75 E3        30.20F
$$

*** WEATHER ACROSS MANITOBA...SASKATCHEWAN AND ONTARIO ***
                ***ONTARIO***

CITY           SKY/WX    TMP DP  RH WIND       PRES   REMARKS
GERALDTON      CLEAR     55  52  88 W6        29.84F
THUNDER BAY    CLEAR     52  50  93 CALM      29.86F
SIOUX LOOKOUT  PTCLDY    50  50 100 VRB2      29.85S
TORONTO        PTCLDY    55  48  76 W5        30.02S
BIG TROUT LK   PTCLDY    52  48  87 N5        29.78F
PICKLE LAKE    NOT AVBL
DRYDEN         CLEAR     59  55  88 SE2       29.84F
KENORA         MOCLDY    59  57  94 SE3       29.83F
$$
                *** MANITOBA***

CITY           SKY/WX    TMP DP  RH WIND       PRES   REMARKS
BRANDON        MOCLDY    61  61 100 N3        29.72S
DAUPHIN        CLEAR     59  59 100 SE3       29.69F FOG
ISLAND LAKE    NOT AVBL
PILOT MOUND      N/A     64  63  94 S7G18       N/A
THE PAS        CLOUDY    66  63  88 SE8       29.64F
THOMPSON       CLEAR     50  50 100 NE6       29.78F
WINNIPEG       MOCLDY    66  59  77 SE14      29.70F
LYNN LAKE      CLEAR     57  50  77 E6        29.74F
CHURCHILL      MOCLDY    52  48  87 N9        29.87S
GILLAM         MOCLDY    46  46 100 E3        29.84F
$$
                ***SASKATCHEWAN***

CITY           SKY/WX    TMP DP  RH WIND       PRES   REMARKS
ESTEVAN        PTCLDY    55  54  94 W9        29.80R
KINDERSLEY     PTCLDY    50  43  76 W8        29.62S
LLOYDMINSTER   LGT RAIN  54  52  94 NE3       29.50F
PRINCE ALBERT  MOCLDY    55  54  94 S3        29.60S
REGINA         CLEAR     55  46  71 SW13G21   29.76F
YORKTON        CLOUDY    61  59  94 S3        29.71S
N. BATTLEFORD  PTCLDY    52  48  87 SW7       29.56R
LA RONGE       MOCLDY    63  61  94 SE8       29.57S
SASKATOON      CLEAR     54  52  94 S13       29.62S
SWIFT CURRENT  CLEAR     50  43  76 SW17      29.74S
$$
NOTE: THESE ARE AUTOMATED STATIONS WITH LIMITED QUALITY CONTROL
      "FAIR" INDICATES FEW OR NO CLOUDS BELOW 12,000 FEET WITH NO
      SIGNIFICANT WEATHER AND/OR OBSTRUCTIONS TO VISIBILITY.
      SKY/WX - SKY CONDITION AND SIGNIFICANT WEATHER.
      TMP - AIR TEMPERATURE.    DP   - DEWPOINT TEMPERATURE.
      RH  - RELATIVE HUMIDITY.  PRES - PRESSURE.
      HX  - HEAT INDEX.         WCI  - WIND CHILL INDEX.
$



USA.gov is the U.S. government's official web portal to all federal, state and local government web resources and services.